Regional Weather Roundup
Issued by NWS Cleveland, OH

Home | Current Version | Previous Version | Graphics & Text | Print | Product List | Glossary On
Versions: 1 2 3 4 5 6 7 8 9 10 11 12 13 14 15 16 17 18 19 20 21 22 23 24 25 26 27 28 29 30 31 32 33 34 35 36 37 38 39 40 41 42 43 44 45 46 47 48 49 50
000
ASUS41 KCLE 052002
RWRCLE
OHIO REGIONAL WEATHER ROUNDUP
NATIONAL WEATHER SERVICE CLEVELAND, OH
300 PM EST MON DEC 05 2016

NOTE: "FAIR" INDICATES FEW OR NO CLOUDS BELOW 12,000 FEET WITH NO
SIGNIFICANT WEATHER AND/OR OBSTRUCTIONS TO VISIBILITY.

OHZ001>008-015>018-024>027-034-035-043-044-052100-
   NORTHWEST OHIO

CITY           SKY/WX    TMP DP  RH WIND       PRES   REMARKS
DEFIANCE       CLOUDY    38  28  67 S7        30.09R
FINDLAY        CLOUDY    38  29  70 SW9       30.09R
TOLEDO EXPRESS CLOUDY    37  30  75 SW9       30.08S
TOLEDO EXEC    CLOUDY    38  31  76 SW12      30.09S
LIMA           CLOUDY    36  31  82 SW7       30.08S
$$

OHZ009>014-019>023-028>033-038-089-052100-
   NORTHEAST OHIO

CITY           SKY/WX    TMP DP  RH WIND       PRES   REMARKS
CLE-HOPKINS    CLOUDY    40  29  64 W9        30.11
CLE-LAKEFRONT  CLOUDY    40  30  67 SW12      30.08S
CUY CO. ARPT   CLOUDY    41  34  75 W12       30.08R
LORAIN-ELYRIA  CLOUDY    37  29  72 W8        30.09S
ASHTABULA      CLOUDY    40  33  76 W9        30.06R
AKRON-CANTON   CLOUDY    39  29  67 SW6       30.08
WOOSTER        CLOUDY    37  29  72 SW7       30.09R
MANSFIELD      CLOUDY    37  30  75 SW7       30.08R
YOUNGSTOWN     CLOUDY    40  29  64 W9        30.07
$$

OHZ042-051>053-060>062-070>072-077>081-052100-
  SOUTHWEST OHIO

CITY           SKY/WX    TMP DP  RH WIND       PRES   REMARKS
CINC-COVINGTON CLOUDY    43  33  68 NE6       30.02F
CINC-LUNKEN    CLOUDY    45  34  65 NE6       30.05F
HAMILTON       PTSUNNY   44  32  62 E3        30.06F
DAYTON         PTSUNNY   41  31  67 E3        30.05F
WRIGHT-PAT AFB SUNNY     42  32  67 E5        30.05F
DAYTON GENERAL MOSUNNY   42  32  67 E5        30.03F
WILMINGTON     CLOUDY    41  33  73 E6        30.04F
$$

OHZ036-037-039>041-045>050-054>059-063>069-073>076-082>088-052100-
  CENTRAL AND SOUTHEAST OHIO

CITY           SKY/WX    TMP DP  RH WIND       PRES   REMARKS
COLUMBUS       PTSUNNY   40  31  70 CALM      30.08F
OSU AIRPORT    MOSUNNY   40  31  70 W5        30.07F
BOLTON FIELD   SUNNY     39  30  70 CALM      30.07F
RICKENBACK AFB SUNNY     40  31  71 CALM      30.07F
NEWARK         CLOUDY    39  30  70 SW5       30.08F
MARION         CLOUDY    38  30  73 SW10      30.09S
LANCASTER      CLOUDY    43  32  65 NE5       30.08F
ZANESVILLE     MOSUNNY   42  30  62 S5        30.09F
NEW PHILLY     CLOUDY    40  30  67 VRB5      30.11
$$




USA.gov is the U.S. government's official web portal to all federal, state and local government web resources and services.